<?xml version='1.0' encoding='UTF-8'?>
<gpx xmlns="http://www.topografix.com/GPX/1/1" creator="www.balnam.be" version="1.1" xmlns:xsi="http://www.w3.org/2001/XMLSchema-instance" xsi:schemaLocation="http://www.topografix.com/GPX/1/1 http://www.topografix.com/GPX/1/1/gpx.xsd">
<trk>
<name>nlbwr1</name>
<cmt>r</cmt>
<desc>Warisoulx Chemin n°1 Rue du Bailli</desc>
<link href="https://chemins.be/warisoulx/chemin/1"/><trkseg>
<trkpt lat="50.533778" lon="4.860678"><time>2026-05-07T19:10:25Z</time></trkpt>
<trkpt lat="50.532112" lon="4.861338"><time>2026-05-07T19:20:25Z</time></trkpt>
<trkpt lat="50.530778" lon="4.862100"><time>2026-05-07T19:30:25Z</time></trkpt>
<trkpt lat="50.530661" lon="4.862226"><time>2026-05-07T19:40:25Z</time></trkpt>
</trkseg>
</trk>
<trk>
<name>nlbwr10</name>
<cmt>r</cmt>
<desc>Warisoulx Chemin n°10 Rue d'Ostin / ?</desc>
<link href="https://chemins.be/warisoulx/chemin/10"/><trkseg>
<trkpt lat="50.554080" lon="4.838537"><time>2026-05-07T19:10:25Z</time></trkpt>
<trkpt lat="50.553121" lon="4.839966"><time>2026-05-07T19:20:25Z</time></trkpt>
<trkpt lat="50.549807" lon="4.847807"><time>2026-05-07T19:30:25Z</time></trkpt>
<trkpt lat="50.548764" lon="4.850223"><time>2026-05-07T19:40:25Z</time></trkpt>
<trkpt lat="50.546870" lon="4.855848"><time>2026-05-07T19:50:25Z</time></trkpt>
<trkpt lat="50.546702" lon="4.857455"><time>2026-05-07T20:00:25Z</time></trkpt>
</trkseg></trk>
<trk>
<name>nlbwr10</name>
<cmt>s</cmt>
<desc>Warisoulx Chemin n°10 Rue d'Ostin / ?</desc>
<link href="https://chemins.be/warisoulx/chemin/10"/><trkseg>
<trkpt lat="50.546702" lon="4.857455"><time>2026-05-07T20:00:25Z</time></trkpt>
<trkpt lat="50.545570" lon="4.859390"><time>2026-05-07T20:10:25Z</time></trkpt>
<trkpt lat="50.543928" lon="4.860798"><time>2026-05-07T20:20:25Z</time></trkpt>
</trkseg>
</trk>
<trk>
<name>nlbwr11</name>
<cmt>r</cmt>
<desc>Warisoulx Chemin n°11 Chemin de Louvain</desc>
<link href="https://chemins.be/warisoulx/chemin/11"/><trkseg>
<trkpt lat="50.523516" lon="4.835567"><time>2026-05-07T19:10:25Z</time></trkpt>
<trkpt lat="50.531927" lon="4.834254"><time>2026-05-07T19:20:25Z</time></trkpt>
<trkpt lat="50.537387" lon="4.833419"><time>2026-05-07T19:30:25Z</time></trkpt>
<trkpt lat="50.539376" lon="4.833058"><time>2026-05-07T19:40:25Z</time></trkpt>
<trkpt lat="50.541243" lon="4.833598"><time>2026-05-07T19:50:25Z</time></trkpt>
</trkseg></trk>
<trk>
<name>nlbwr11</name>
<cmt>s</cmt>
<desc>Warisoulx Chemin n°11 Chemin de Louvain</desc>
<link href="https://chemins.be/warisoulx/chemin/11"/><trkseg>
<trkpt lat="50.541243" lon="4.833598"><time>2026-05-07T19:50:25Z</time></trkpt>
<trkpt lat="50.545282" lon="4.832975"><time>2026-05-07T20:00:25Z</time></trkpt>
</trkseg>
</trk>
<trk>
<name>nlbwr12</name>
<cmt>r</cmt>
<desc>Warisoulx Chemin n°12 Rue Pommelée Vache</desc>
<link href="https://chemins.be/warisoulx/chemin/12"/><trkseg>
<trkpt lat="50.541216" lon="4.833683"><time>2026-05-07T19:10:25Z</time></trkpt>
<trkpt lat="50.543524" lon="4.840127"><time>2026-05-07T19:20:25Z</time></trkpt>
</trkseg>
</trk>
<trk>
<name>nlbwr12bis</name>
<cmt>r</cmt>
<desc>Warisoulx Chemin n°12bis Rue d'Ostin</desc>
<link href="https://chemins.be/warisoulx/chemin/12bis"/><trkseg>
<trkpt lat="50.543392" lon="4.840406"><time>2026-05-07T19:10:25Z</time></trkpt>
<trkpt lat="50.547403" lon="4.848672"><time>2026-05-07T19:20:25Z</time></trkpt>
</trkseg>
</trk>
<trk>
<name>nlbwr13</name>
<cmt>r</cmt>
<desc>Warisoulx Chemin n°13 Rue des Laderies</desc>
<link href="https://chemins.be/warisoulx/chemin/13"/><trkseg>
<trkpt lat="50.521859" lon="4.831608"><time>2026-05-07T19:10:25Z</time></trkpt>
<trkpt lat="50.523587" lon="4.835667"><time>2026-05-07T19:20:25Z</time></trkpt>
<trkpt lat="50.529062" lon="4.844480"><time>2026-05-07T19:30:25Z</time></trkpt>
<trkpt lat="50.529228" lon="4.845864"><time>2026-05-07T19:40:25Z</time></trkpt>
</trkseg>
</trk>
<trk>
<name>nlbwr14</name>
<cmt>v</cmt>
<desc>Warisoulx Chemin n°14 </desc>
<link href="https://chemins.be/warisoulx/chemin/14"/><trkseg>
<trkpt lat="50.531832" lon="4.855270"><time>2026-05-07T19:10:25Z</time></trkpt>
<trkpt lat="50.530567" lon="4.856611"><time>2026-05-07T19:20:25Z</time></trkpt>
</trkseg></trk>
<trk>
<name>nlbwr14</name>
<cmt>s</cmt>
<desc>Warisoulx Chemin n°14 </desc>
<link href="https://chemins.be/warisoulx/chemin/14"/><trkseg>
<trkpt lat="50.530567" lon="4.856611"><time>2026-05-07T19:20:25Z</time></trkpt>
<trkpt lat="50.529690" lon="4.855742"><time>2026-05-07T19:30:25Z</time></trkpt>
<trkpt lat="50.527367" lon="4.852333"><time>2026-05-07T19:40:25Z</time></trkpt>
</trkseg></trk>
<trk>
<name>nlbwr14</name>
<cmt>v</cmt>
<desc>Warisoulx Chemin n°14 </desc>
<link href="https://chemins.be/warisoulx/chemin/14"/><trkseg>
<trkpt lat="50.527367" lon="4.852333"><time>2026-05-07T19:40:25Z</time></trkpt>
<trkpt lat="50.524819" lon="4.848781"><time>2026-05-07T19:50:25Z</time></trkpt>
</trkseg>
</trk>
<trk>
<name>nlbwr15</name>
<cmt>v</cmt>
<desc>Warisoulx Chemin n°15 Rue de Namur / Rue d'Ostin</desc>
<link href="https://chemins.be/warisoulx/chemin/15"/><trkseg>
<trkpt lat="50.533020" lon="4.844040"><time>2026-05-07T19:10:25Z</time></trkpt>
<trkpt lat="50.534714" lon="4.845284"><time>2026-05-07T19:20:25Z</time></trkpt>
</trkseg></trk>
<trk>
<name>nlbwr15</name>
<cmt>s</cmt>
<desc>Warisoulx Chemin n°15 Rue de Namur / Rue d'Ostin</desc>
<link href="https://chemins.be/warisoulx/chemin/15"/><trkseg>
<trkpt lat="50.534714" lon="4.845284"><time>2026-05-07T19:20:25Z</time></trkpt>
<trkpt lat="50.538520" lon="4.842219"><time>2026-05-07T19:30:25Z</time></trkpt>
</trkseg></trk>
<trk>
<name>nlbwr15</name>
<cmt>r</cmt>
<desc>Warisoulx Chemin n°15 Rue de Namur / Rue d'Ostin</desc>
<link href="https://chemins.be/warisoulx/chemin/15"/><trkseg>
<trkpt lat="50.538520" lon="4.842219"><time>2026-05-07T19:30:25Z</time></trkpt>
<trkpt lat="50.543770" lon="4.840212"><time>2026-05-07T19:40:25Z</time></trkpt>
</trkseg></trk>
<trk>
<name>nlbwr15</name>
<cmt>s</cmt>
<desc>Warisoulx Chemin n°15 Rue de Namur / Rue d'Ostin</desc>
<link href="https://chemins.be/warisoulx/chemin/15"/><trkseg>
<trkpt lat="50.543770" lon="4.840212"><time>2026-05-07T19:40:25Z</time></trkpt>
<trkpt lat="50.547579" lon="4.845217"><time>2026-05-07T19:50:25Z</time></trkpt>
<trkpt lat="50.547683" lon="4.846318"><time>2026-05-07T20:00:25Z</time></trkpt>
<trkpt lat="50.547652" lon="4.847376"><time>2026-05-07T20:10:25Z</time></trkpt>
<trkpt lat="50.547439" lon="4.848700"><time>2026-05-07T20:20:25Z</time></trkpt>
</trkseg></trk>
<trk>
<name>nlbwr15</name>
<cmt>r</cmt>
<desc>Warisoulx Chemin n°15 Rue de Namur / Rue d'Ostin</desc>
<link href="https://chemins.be/warisoulx/chemin/15"/><trkseg>
<trkpt lat="50.547439" lon="4.848700"><time>2026-05-07T20:20:25Z</time></trkpt>
<trkpt lat="50.547866" lon="4.849763"><time>2026-05-07T20:30:25Z</time></trkpt>
<trkpt lat="50.548619" lon="4.850377"><time>2026-05-07T20:40:25Z</time></trkpt>
</trkseg>
</trk>
<trk>
<name>nlbwr16</name>
<cmt>r</cmt>
<desc>Warisoulx Chemin n°16 </desc>
<link href="https://chemins.be/warisoulx/chemin/16"/><trkseg>
<trkpt lat="50.544159" lon="4.861224"><time>2026-05-07T19:10:25Z</time></trkpt>
<trkpt lat="50.542661" lon="4.858415"><time>2026-05-07T19:20:25Z</time></trkpt>
<trkpt lat="50.541742" lon="4.856740"><time>2026-05-07T19:30:25Z</time></trkpt>
</trkseg></trk>
<trk>
<name>nlbwr16</name>
<cmt>s</cmt>
<desc>Warisoulx Chemin n°16 </desc>
<link href="https://chemins.be/warisoulx/chemin/16"/><trkseg>
<trkpt lat="50.541742" lon="4.856740"><time>2026-05-07T19:30:25Z</time></trkpt>
<trkpt lat="50.536821" lon="4.848903"><time>2026-05-07T19:40:25Z</time></trkpt>
<trkpt lat="50.535570" lon="4.847056"><time>2026-05-07T19:50:25Z</time></trkpt>
<trkpt lat="50.534741" lon="4.845383"><time>2026-05-07T20:00:25Z</time></trkpt>
</trkseg>
</trk>
<trk>
<name>nlbwr17</name>
<cmt>r</cmt>
<desc>Warisoulx Chemin n°17 Rue de Namur-Perwez</desc>
<link href="https://chemins.be/warisoulx/chemin/17"/><trkseg>
<trkpt lat="50.524909" lon="4.848923"><time>2026-05-07T19:10:25Z</time></trkpt>
<trkpt lat="50.528252" lon="4.847067"><time>2026-05-07T19:20:25Z</time></trkpt>
<trkpt lat="50.528993" lon="4.846087"><time>2026-05-07T19:30:25Z</time></trkpt>
<trkpt lat="50.531011" lon="4.845064"><time>2026-05-07T19:40:25Z</time></trkpt>
</trkseg>
</trk>
<trk>
<name>nlbwr18</name>
<cmt>s</cmt>
<desc>Warisoulx Chemin n°18 Chemin de Meux</desc>
<link href="https://chemins.be/warisoulx/chemin/18"/><trkseg>
<trkpt lat="50.538934" lon="4.826480"><time>2026-05-07T19:10:25Z</time></trkpt>
<trkpt lat="50.537444" lon="4.828243"><time>2026-05-07T19:20:25Z</time></trkpt>
<trkpt lat="50.536991" lon="4.828944"><time>2026-05-07T19:30:25Z</time></trkpt>
<trkpt lat="50.536772" lon="4.829788"><time>2026-05-07T19:40:25Z</time></trkpt>
<trkpt lat="50.537522" lon="4.833406"><time>2026-05-07T19:50:25Z</time></trkpt>
</trkseg>
</trk>
<trk>
<name>nlbwr19</name>
<cmt>r</cmt>
<desc>Warisoulx Chemin n°19 Rue de Trehet / Rue du Trehet</desc>
<link href="https://chemins.be/warisoulx/chemin/19"/><trkseg>
<trkpt lat="50.532237" lon="4.844131"><time>2026-05-07T19:10:25Z</time></trkpt>
<trkpt lat="50.532095" lon="4.839461"><time>2026-05-07T19:20:25Z</time></trkpt>
<trkpt lat="50.532343" lon="4.838081"><time>2026-05-07T19:30:25Z</time></trkpt>
<trkpt lat="50.532250" lon="4.836627"><time>2026-05-07T19:40:25Z</time></trkpt>
<trkpt lat="50.531809" lon="4.834366"><time>2026-05-07T19:50:25Z</time></trkpt>
</trkseg>
</trk>
<trk>
<name>nlbwr2</name>
<cmt>r</cmt>
<desc>Warisoulx Chemin n°2 Rue du Bailli / Rue de Namur / Rue de Dhuy</desc>
<link href="https://chemins.be/warisoulx/chemin/2"/><trkseg>
<trkpt lat="50.523971" lon="4.866598"><time>2026-05-07T19:10:25Z</time></trkpt>
<trkpt lat="50.525460" lon="4.865330"><time>2026-05-07T19:20:25Z</time></trkpt>
<trkpt lat="50.528496" lon="4.863839"><time>2026-05-07T19:30:25Z</time></trkpt>
<trkpt lat="50.530580" lon="4.862267"><time>2026-05-07T19:40:25Z</time></trkpt>
</trkseg></trk>
<trk>
<name>nlbwr2</name>
<cmt>v</cmt>
<desc>Warisoulx Chemin n°2 Rue du Bailli / Rue de Namur / Rue de Dhuy</desc>
<link href="https://chemins.be/warisoulx/chemin/2"/><trkseg>
<trkpt lat="50.530580" lon="4.862267"><time>2026-05-07T19:40:25Z</time></trkpt>
<trkpt lat="50.531192" lon="4.864192"><time>2026-05-07T19:50:25Z</time></trkpt>
<trkpt lat="50.532458" lon="4.864445"><time>2026-05-07T20:00:25Z</time></trkpt>
</trkseg></trk>
<trk>
<name>nlbwr2</name>
<cmt>r</cmt>
<desc>Warisoulx Chemin n°2 Rue du Bailli / Rue de Namur / Rue de Dhuy</desc>
<link href="https://chemins.be/warisoulx/chemin/2"/><trkseg>
<trkpt lat="50.532458" lon="4.864445"><time>2026-05-07T20:00:25Z</time></trkpt>
<trkpt lat="50.533230" lon="4.864693"><time>2026-05-07T20:10:25Z</time></trkpt>
<trkpt lat="50.534323" lon="4.865748"><time>2026-05-07T20:20:25Z</time></trkpt>
<trkpt lat="50.536593" lon="4.866675"><time>2026-05-07T20:30:25Z</time></trkpt>
<trkpt lat="50.543486" lon="4.862133"><time>2026-05-07T20:40:25Z</time></trkpt>
<trkpt lat="50.544150" lon="4.861365"><time>2026-05-07T20:50:25Z</time></trkpt>
</trkseg>
</trk>
<trk>
<name>nlbwr20</name>
<cmt>s</cmt>
<desc>Warisoulx Chemin n°20 </desc>
<link href="https://chemins.be/warisoulx/chemin/20"/><trkseg>
<trkpt lat="50.531189" lon="4.851949"><time>2026-05-07T19:10:25Z</time></trkpt>
<trkpt lat="50.531958" lon="4.846413"><time>2026-05-07T19:20:25Z</time></trkpt>
<trkpt lat="50.531876" lon="4.844635"><time>2026-05-07T19:30:25Z</time></trkpt>
</trkseg>
</trk>
<trk>
<name>nlbwr21</name>
<cmt>r</cmt>
<desc>Warisoulx Chemin n°21 La Ruelle</desc>
<link href="https://chemins.be/warisoulx/chemin/21"/><trkseg>
<trkpt lat="50.529912" lon="4.845603"><time>2026-05-07T19:10:25Z</time></trkpt>
<trkpt lat="50.529902" lon="4.841442"><time>2026-05-07T19:20:25Z</time></trkpt>
</trkseg></trk>
<trk>
<name>nlbwr21</name>
<cmt>s</cmt>
<desc>Warisoulx Chemin n°21 La Ruelle</desc>
<link href="https://chemins.be/warisoulx/chemin/21"/><trkseg>
<trkpt lat="50.529902" lon="4.841442"><time>2026-05-07T19:20:25Z</time></trkpt>
<trkpt lat="50.529956" lon="4.834616"><time>2026-05-07T19:30:25Z</time></trkpt>
</trkseg>
</trk>
<trk>
<name>nlbwr22</name>
<cmt>r</cmt>
<desc>Warisoulx Chemin n°22 Rue des Trieux</desc>
<link href="https://chemins.be/warisoulx/chemin/22"/><trkseg>
<trkpt lat="50.535565" lon="4.869513"><time>2026-05-07T19:10:25Z</time></trkpt>
<trkpt lat="50.535988" lon="4.871450"><time>2026-05-07T19:20:25Z</time></trkpt>
<trkpt lat="50.536004" lon="4.872114"><time>2026-05-07T19:30:25Z</time></trkpt>
<trkpt lat="50.535608" lon="4.872208"><time>2026-05-07T19:40:25Z</time></trkpt>
</trkseg>
</trk>
<trk>
<name>nlbwr23</name>
<cmt>r</cmt>
<desc>Warisoulx Chemin n°23 Rue du Médecin</desc>
<link href="https://chemins.be/warisoulx/chemin/23"/><trkseg>
<trkpt lat="50.534966" lon="4.859889"><time>2026-05-07T19:10:25Z</time></trkpt>
<trkpt lat="50.534898" lon="4.859444"><time>2026-05-07T19:20:25Z</time></trkpt>
<trkpt lat="50.534637" lon="4.859027"><time>2026-05-07T19:30:25Z</time></trkpt>
</trkseg></trk>
<trk>
<name>nlbwr23</name>
<cmt>s</cmt>
<desc>Warisoulx Chemin n°23 Rue du Médecin</desc>
<link href="https://chemins.be/warisoulx/chemin/23"/><trkseg>
<trkpt lat="50.534637" lon="4.859027"><time>2026-05-07T19:30:25Z</time></trkpt>
<trkpt lat="50.534264" lon="4.858500"><time>2026-05-07T19:40:25Z</time></trkpt>
<trkpt lat="50.534677" lon="4.857792"><time>2026-05-07T19:50:25Z</time></trkpt>
</trkseg>
</trk>
<trk>
<name>nlbwr24</name>
<cmt>v</cmt>
<desc>Warisoulx Chemin n°24 </desc>
<link href="https://chemins.be/warisoulx/chemin/24"/><trkseg>
<trkpt lat="50.531895" lon="4.855242"><time>2026-05-07T19:10:25Z</time></trkpt>
<trkpt lat="50.532811" lon="4.855407"><time>2026-05-07T19:20:25Z</time></trkpt>
<trkpt lat="50.533538" lon="4.855753"><time>2026-05-07T19:30:25Z</time></trkpt>
<trkpt lat="50.535466" lon="4.856915"><time>2026-05-07T19:40:25Z</time></trkpt>
<trkpt lat="50.537295" lon="4.858133"><time>2026-05-07T19:50:25Z</time></trkpt>
</trkseg>
</trk>
<trk>
<name>nlbwr25</name>
<cmt>v</cmt>
<desc>Warisoulx Chemin n°25 Rue de Namur</desc>
<link href="https://chemins.be/warisoulx/chemin/25"/><trkseg>
<trkpt lat="50.533231" lon="4.864665"><time>2026-05-07T19:10:25Z</time></trkpt>
<trkpt lat="50.533312" lon="4.864538"><time>2026-05-07T19:20:25Z</time></trkpt>
<trkpt lat="50.533475" lon="4.864286"><time>2026-05-07T19:30:25Z</time></trkpt>
<trkpt lat="50.533854" lon="4.864022"><time>2026-05-07T19:40:25Z</time></trkpt>
</trkseg></trk>
<trk>
<name>nlbwr25</name>
<cmt>d</cmt>
<desc>Warisoulx Chemin n°25 Rue de Namur</desc>
<link href="https://chemins.be/warisoulx/chemin/25"/><trkseg>
<trkpt lat="50.533854" lon="4.864022"><time>2026-05-07T19:40:25Z</time></trkpt>
<trkpt lat="50.534122" lon="4.864364"><time>2026-05-07T19:50:25Z</time></trkpt>
</trkseg></trk>
<trk>
<name>nlbwr25</name>
<cmt>s</cmt>
<desc>Warisoulx Chemin n°25 Rue de Namur</desc>
<link href="https://chemins.be/warisoulx/chemin/25"/><trkseg>
<trkpt lat="50.534122" lon="4.864364"><time>2026-05-07T19:50:25Z</time></trkpt>
<trkpt lat="50.534401" lon="4.864197"><time>2026-05-07T20:00:25Z</time></trkpt>
<trkpt lat="50.535573" lon="4.863462"><time>2026-05-07T20:10:25Z</time></trkpt>
</trkseg>
</trk>
<trk>
<name>nlbwr26</name>
<cmt>s</cmt>
<desc>Warisoulx Sentier n°26 </desc>
<link href="https://chemins.be/warisoulx/sentier/26"/><trkseg>
<trkpt lat="50.537591" lon="4.862467"><time>2026-05-07T19:10:25Z</time></trkpt>
<trkpt lat="50.541497" lon="4.857175"><time>2026-05-07T19:20:25Z</time></trkpt>
<trkpt lat="50.541760" lon="4.856684"><time>2026-05-07T19:30:25Z</time></trkpt>
<trkpt lat="50.544895" lon="4.853133"><time>2026-05-07T19:40:25Z</time></trkpt>
<trkpt lat="50.547376" lon="4.848812"><time>2026-05-07T19:50:25Z</time></trkpt>
</trkseg>
</trk>
<trk>
<name>nlbwr27</name>
<cmt>q</cmt>
<desc>Warisoulx Sentier n°27 </desc>
<link href="https://chemins.be/warisoulx/sentier/27"/><trkseg>
<trkpt lat="50.525090" lon="4.865736"><time>2026-05-07T19:10:25Z</time></trkpt>
<trkpt lat="50.525436" lon="4.866684"><time>2026-05-07T19:20:25Z</time></trkpt>
<trkpt lat="50.524818" lon="4.868271"><time>2026-05-07T19:30:25Z</time></trkpt>
</trkseg>
</trk>
<trk>
<name>nlbwr28</name>
<cmt>s</cmt>
<desc>Warisoulx Sentier n°28 </desc>
<link href="https://chemins.be/warisoulx/sentier/28"/><trkseg>
<trkpt lat="50.525136" lon="4.865510"><time>2026-05-07T19:10:25Z</time></trkpt>
<trkpt lat="50.524093" lon="4.865556"><time>2026-05-07T19:20:25Z</time></trkpt>
</trkseg>
</trk>
<trk>
<name>nlbwr29</name>
<cmt>r</cmt>
<desc>Warisoulx Sentier n°29 Rue des Trieux</desc>
<link href="https://chemins.be/warisoulx/sentier/29"/><trkseg>
<trkpt lat="50.536057" lon="4.872199"><time>2026-05-07T19:10:25Z</time></trkpt>
<trkpt lat="50.536163" lon="4.872778"><time>2026-05-07T19:20:25Z</time></trkpt>
</trkseg></trk>
<trk>
<name>nlbwr29</name>
<cmt>s</cmt>
<desc>Warisoulx Sentier n°29 Rue des Trieux</desc>
<link href="https://chemins.be/warisoulx/sentier/29"/><trkseg>
<trkpt lat="50.536163" lon="4.872778"><time>2026-05-07T19:20:25Z</time></trkpt>
<trkpt lat="50.536356" lon="4.873852"><time>2026-05-07T19:30:25Z</time></trkpt>
</trkseg>
</trk>
<trk>
<name>nlbwr3</name>
<cmt>r</cmt>
<desc>Warisoulx Chemin n°3 Route de Warisoulx / Rue de Cognelée</desc>
<link href="https://chemins.be/warisoulx/chemin/3"/><trkseg>
<trkpt lat="50.540641" lon="4.873692"><time>2026-05-07T19:10:25Z</time></trkpt>
<trkpt lat="50.540297" lon="4.872992"><time>2026-05-07T19:20:25Z</time></trkpt>
<trkpt lat="50.538978" lon="4.870396"><time>2026-05-07T19:30:25Z</time></trkpt>
<trkpt lat="50.537603" lon="4.868096"><time>2026-05-07T19:40:25Z</time></trkpt>
<trkpt lat="50.536638" lon="4.866675"><time>2026-05-07T19:50:25Z</time></trkpt>
<trkpt lat="50.535528" lon="4.863419"><time>2026-05-07T20:00:25Z</time></trkpt>
<trkpt lat="50.534690" lon="4.861845"><time>2026-05-07T20:10:25Z</time></trkpt>
<trkpt lat="50.534188" lon="4.861473"><time>2026-05-07T20:20:25Z</time></trkpt>
<trkpt lat="50.533891" lon="4.860803"><time>2026-05-07T20:30:25Z</time></trkpt>
<trkpt lat="50.533954" lon="4.860256"><time>2026-05-07T20:40:25Z</time></trkpt>
<trkpt lat="50.533880" lon="4.859682"><time>2026-05-07T20:50:25Z</time></trkpt>
<trkpt lat="50.533567" lon="4.858873"><time>2026-05-07T21:00:25Z</time></trkpt>
<trkpt lat="50.532776" lon="4.857381"><time>2026-05-07T21:10:25Z</time></trkpt>
</trkseg>
</trk>
<trk>
<name>nlbwr30</name>
<cmt>s</cmt>
<desc>Warisoulx Sentier n°30 </desc>
<link href="https://chemins.be/warisoulx/sentier/30"/><trkseg>
<trkpt lat="50.531338" lon="4.857211"><time>2026-05-07T19:10:25Z</time></trkpt>
<trkpt lat="50.532877" lon="4.861022"><time>2026-05-07T19:20:25Z</time></trkpt>
<trkpt lat="50.533039" lon="4.860967"><time>2026-05-07T19:30:25Z</time></trkpt>
<trkpt lat="50.533349" lon="4.862113"><time>2026-05-07T19:40:25Z</time></trkpt>
<trkpt lat="50.533688" lon="4.862836"><time>2026-05-07T19:50:25Z</time></trkpt>
</trkseg></trk>
<trk>
<name>nlbwr30</name>
<cmt>d</cmt>
<desc>Warisoulx Sentier n°30 </desc>
<link href="https://chemins.be/warisoulx/sentier/30"/><trkseg>
<trkpt lat="50.533688" lon="4.862836"><time>2026-05-07T19:50:25Z</time></trkpt>
<trkpt lat="50.534062" lon="4.863531"><time>2026-05-07T20:00:25Z</time></trkpt>
<trkpt lat="50.533854" lon="4.864008"><time>2026-05-07T20:10:25Z</time></trkpt>
<trkpt lat="50.534122" lon="4.864392"><time>2026-05-07T20:20:25Z</time></trkpt>
<trkpt lat="50.534503" lon="4.865581"><time>2026-05-07T20:30:25Z</time></trkpt>
</trkseg></trk>
<trk>
<name>nlbwr30</name>
<cmt>s</cmt>
<desc>Warisoulx Sentier n°30 </desc>
<link href="https://chemins.be/warisoulx/sentier/30"/><trkseg>
<trkpt lat="50.534503" lon="4.865581"><time>2026-05-07T20:30:25Z</time></trkpt>
<trkpt lat="50.535575" lon="4.869245"><time>2026-05-07T20:40:25Z</time></trkpt>
</trkseg>
</trk>
<trk>
<name>nlbwr31</name>
<cmt>s</cmt>
<desc>Warisoulx Sentier n°31 </desc>
<link href="https://chemins.be/warisoulx/sentier/31"/><trkseg>
<trkpt lat="50.531338" lon="4.857169"><time>2026-05-07T19:10:25Z</time></trkpt>
<trkpt lat="50.531108" lon="4.856292"><time>2026-05-07T19:20:25Z</time></trkpt>
</trkseg>
</trk>
<trk>
<name>nlbwr32</name>
<cmt>s</cmt>
<desc>Warisoulx Sentier n°32 </desc>
<link href="https://chemins.be/warisoulx/sentier/32"/><trkseg>
<trkpt lat="50.534275" lon="4.858548"><time>2026-05-07T19:10:25Z</time></trkpt>
<trkpt lat="50.532962" lon="4.857905"><time>2026-05-07T19:20:25Z</time></trkpt>
<trkpt lat="50.531339" lon="4.857098"><time>2026-05-07T19:30:25Z</time></trkpt>
</trkseg>
</trk>
<trk>
<name>nlbwr33</name>
<cmt>s</cmt>
<desc>Warisoulx Sentier n°33 </desc>
<link href="https://chemins.be/warisoulx/sentier/33"/><trkseg>
<trkpt lat="50.534525" lon="4.860376"><time>2026-05-07T19:10:25Z</time></trkpt>
<trkpt lat="50.535113" lon="4.861778"><time>2026-05-07T19:20:25Z</time></trkpt>
<trkpt lat="50.535540" lon="4.862714"><time>2026-05-07T19:30:25Z</time></trkpt>
<trkpt lat="50.535396" lon="4.862896"><time>2026-05-07T19:40:25Z</time></trkpt>
</trkseg>
</trk>
<trk>
<name>nlbwr33bis</name>
<cmt>s</cmt>
<desc>Warisoulx Sentier n°33bis </desc>
<link href="https://chemins.be/warisoulx/sentier/33bis"/><trkseg>
<trkpt lat="50.535638" lon="4.860895"><time>2026-05-07T19:10:25Z</time></trkpt>
<trkpt lat="50.535113" lon="4.861680"><time>2026-05-07T19:20:25Z</time></trkpt>
</trkseg>
</trk>
<trk>
<name>nlbwr34</name>
<cmt>s</cmt>
<desc>Warisoulx Sentier n°34 </desc>
<link href="https://chemins.be/warisoulx/sentier/34"/><trkseg>
<trkpt lat="50.535428" lon="4.872164"><time>2026-05-07T19:10:25Z</time></trkpt>
<trkpt lat="50.534890" lon="4.871763"><time>2026-05-07T19:20:25Z</time></trkpt>
<trkpt lat="50.534427" lon="4.870729"><time>2026-05-07T19:30:25Z</time></trkpt>
</trkseg>
</trk>
<trk>
<name>nlbwr35</name>
<cmt>s</cmt>
<desc>Warisoulx Sentier n°35 Rue de Warisoulx</desc>
<link href="https://chemins.be/warisoulx/sentier/35"/><trkseg>
<trkpt lat="50.528884" lon="4.846424"><time>2026-05-07T19:10:25Z</time></trkpt>
<trkpt lat="50.530502" lon="4.848655"><time>2026-05-07T19:20:25Z</time></trkpt>
<trkpt lat="50.531413" lon="4.850089"><time>2026-05-07T19:30:25Z</time></trkpt>
</trkseg>
</trk>
<trk>
<name>nlbwr36</name>
<cmt>s</cmt>
<desc>Warisoulx Sentier n°36 </desc>
<link href="https://chemins.be/warisoulx/sentier/36"/><trkseg>
<trkpt lat="50.543726" lon="4.840084"><time>2026-05-07T19:10:25Z</time></trkpt>
<trkpt lat="50.544676" lon="4.838556"><time>2026-05-07T19:20:25Z</time></trkpt>
<trkpt lat="50.545294" lon="4.834569"><time>2026-05-07T19:30:25Z</time></trkpt>
<trkpt lat="50.545246" lon="4.833116"><time>2026-05-07T19:40:25Z</time></trkpt>
</trkseg>
</trk>
<trk>
<name>nlbwr37</name>
<cmt>s</cmt>
<desc>Warisoulx Sentier n°37 </desc>
<link href="https://chemins.be/warisoulx/sentier/37"/><trkseg>
<trkpt lat="50.533600" lon="4.833946"><time>2026-05-07T19:10:25Z</time></trkpt>
<trkpt lat="50.533156" lon="4.832489"><time>2026-05-07T19:20:25Z</time></trkpt>
<trkpt lat="50.533229" lon="4.832391"><time>2026-05-07T19:30:25Z</time></trkpt>
<trkpt lat="50.534378" lon="4.828170"><time>2026-05-07T19:40:25Z</time></trkpt>
<trkpt lat="50.535144" lon="4.825512"><time>2026-05-07T19:50:25Z</time></trkpt>
</trkseg>
</trk>
<trk>
<name>nlbwr38</name>
<cmt>s</cmt>
<desc>Warisoulx Sentier n°38 </desc>
<link href="https://chemins.be/warisoulx/sentier/38"/><trkseg>
<trkpt lat="50.524337" lon="4.841287"><time>2026-05-07T19:10:25Z</time></trkpt>
<trkpt lat="50.523215" lon="4.841008"><time>2026-05-07T19:20:25Z</time></trkpt>
</trkseg>
</trk>
<trk>
<name>nlbwr39</name>
<cmt>s</cmt>
<desc>Warisoulx Sentier n°39 Rue des Ecoles / ?</desc>
<link href="https://chemins.be/warisoulx/sentier/39"/><trkseg>
<trkpt lat="50.530973" lon="4.834499"><time>2026-05-07T19:10:25Z</time></trkpt>
<trkpt lat="50.531197" lon="4.839043"><time>2026-05-07T19:20:25Z</time></trkpt>
<trkpt lat="50.531060" lon="4.839704"><time>2026-05-07T19:30:25Z</time></trkpt>
</trkseg></trk>
<trk>
<name>nlbwr39</name>
<cmt>r</cmt>
<desc>Warisoulx Sentier n°39 Rue des Ecoles / ?</desc>
<link href="https://chemins.be/warisoulx/sentier/39"/><trkseg>
<trkpt lat="50.531060" lon="4.839704"><time>2026-05-07T19:30:25Z</time></trkpt>
<trkpt lat="50.529956" lon="4.841470"><time>2026-05-07T19:40:25Z</time></trkpt>
</trkseg></trk>
<trk>
<name>nlbwr39</name>
<cmt>s</cmt>
<desc>Warisoulx Sentier n°39 Rue des Ecoles / ?</desc>
<link href="https://chemins.be/warisoulx/sentier/39"/><trkseg>
<trkpt lat="50.529956" lon="4.841470"><time>2026-05-07T19:40:25Z</time></trkpt>
<trkpt lat="50.528786" lon="4.841614"><time>2026-05-07T19:50:25Z</time></trkpt>
<trkpt lat="50.527312" lon="4.841557"><time>2026-05-07T20:00:25Z</time></trkpt>
<trkpt lat="50.524239" lon="4.841286"><time>2026-05-07T20:10:25Z</time></trkpt>
<trkpt lat="50.523293" lon="4.841770"><time>2026-05-07T20:20:25Z</time></trkpt>
</trkseg>
</trk>
<trk>
<name>nlbwr4</name>
<cmt>r</cmt>
<desc>Warisoulx Chemin n°4 Rue du Médecin</desc>
<link href="https://chemins.be/warisoulx/chemin/4"/><trkseg>
<trkpt lat="50.533904" lon="4.860694"><time>2026-05-07T19:10:25Z</time></trkpt>
<trkpt lat="50.534905" lon="4.859957"><time>2026-05-07T19:20:25Z</time></trkpt>
<trkpt lat="50.536344" lon="4.861777"><time>2026-05-07T19:30:25Z</time></trkpt>
<trkpt lat="50.537349" lon="4.862253"><time>2026-05-07T19:40:25Z</time></trkpt>
<trkpt lat="50.538825" lon="4.864117"><time>2026-05-07T19:50:25Z</time></trkpt>
<trkpt lat="50.539074" lon="4.864754"><time>2026-05-07T20:00:25Z</time></trkpt>
</trkseg>
</trk>
<trk>
<name>nlbwr40</name>
<cmt>s</cmt>
<desc>Warisoulx Sentier n°40 </desc>
<link href="https://chemins.be/warisoulx/sentier/40"/><trkseg>
<trkpt lat="50.521349" lon="4.853103"><time>2026-05-07T19:10:25Z</time></trkpt>
<trkpt lat="50.521448" lon="4.853189"><time>2026-05-07T19:20:25Z</time></trkpt>
<trkpt lat="50.521934" lon="4.852926"><time>2026-05-07T19:30:25Z</time></trkpt>
<trkpt lat="50.522325" lon="4.853945"><time>2026-05-07T19:40:25Z</time></trkpt>
<trkpt lat="50.522770" lon="4.852934"><time>2026-05-07T19:50:25Z</time></trkpt>
<trkpt lat="50.523052" lon="4.852289"><time>2026-05-07T20:00:25Z</time></trkpt>
<trkpt lat="50.523834" lon="4.854299"><time>2026-05-07T20:10:25Z</time></trkpt>
</trkseg></trk>
<trk>
<name>nlbwr40</name>
<cmt>q</cmt>
<desc>Warisoulx Sentier n°40 </desc>
<link href="https://chemins.be/warisoulx/sentier/40"/><trkseg>
<trkpt lat="50.523834" lon="4.854299"><time>2026-05-07T20:10:25Z</time></trkpt>
<trkpt lat="50.524613" lon="4.852967"><time>2026-05-07T20:20:25Z</time></trkpt>
<trkpt lat="50.524985" lon="4.852153"><time>2026-05-07T20:30:25Z</time></trkpt>
</trkseg></trk>
<trk>
<name>nlbwr40</name>
<cmt>s</cmt>
<desc>Warisoulx Sentier n°40 </desc>
<link href="https://chemins.be/warisoulx/sentier/40"/><trkseg>
<trkpt lat="50.524985" lon="4.852153"><time>2026-05-07T20:30:25Z</time></trkpt>
<trkpt lat="50.525910" lon="4.850230"><time>2026-05-07T20:40:25Z</time></trkpt>
<trkpt lat="50.527114" lon="4.848141"><time>2026-05-07T20:50:25Z</time></trkpt>
<trkpt lat="50.527018" lon="4.847590"><time>2026-05-07T21:00:25Z</time></trkpt>
</trkseg>
</trk>
<trk>
<name>nlbwr41</name>
<cmt>v</cmt>
<desc>Warisoulx Sentier n°41 </desc>
<link href="https://chemins.be/warisoulx/sentier/41"/><trkseg>
<trkpt lat="50.531458" lon="4.867157"><time>2026-05-07T19:10:25Z</time></trkpt>
<trkpt lat="50.529954" lon="4.867677"><time>2026-05-07T19:20:25Z</time></trkpt>
</trkseg></trk>
<trk>
<name>nlbwr41</name>
<cmt>s</cmt>
<desc>Warisoulx Sentier n°41 </desc>
<link href="https://chemins.be/warisoulx/sentier/41"/><trkseg>
<trkpt lat="50.529954" lon="4.867677"><time>2026-05-07T19:20:25Z</time></trkpt>
<trkpt lat="50.529044" lon="4.868090"><time>2026-05-07T19:30:25Z</time></trkpt>
<trkpt lat="50.527618" lon="4.867455"><time>2026-05-07T19:40:25Z</time></trkpt>
<trkpt lat="50.526880" lon="4.867517"><time>2026-05-07T19:50:25Z</time></trkpt>
</trkseg>
</trk>
<trk>
<name>nlbwr5</name>
<cmt>q</cmt>
<desc>Warisoulx Chemin n°5 </desc>
<link href="https://chemins.be/warisoulx/chemin/5"/><trkseg>
<trkpt lat="50.535663" lon="4.863491"><time>2026-05-07T19:10:25Z</time></trkpt>
<trkpt lat="50.536743" lon="4.863206"><time>2026-05-07T19:20:25Z</time></trkpt>
<trkpt lat="50.537322" lon="4.862450"><time>2026-05-07T19:30:25Z</time></trkpt>
</trkseg>
</trk>
<trk>
<name>nlbwr6</name>
<cmt>r</cmt>
<desc>Warisoulx Chemin n°6 Rue de Cognelée / Rue de la Brasserie</desc>
<link href="https://chemins.be/warisoulx/chemin/6"/><trkseg>
<trkpt lat="50.536602" lon="4.866774"><time>2026-05-07T19:10:25Z</time></trkpt>
<trkpt lat="50.536793" lon="4.868285"><time>2026-05-07T19:20:25Z</time></trkpt>
<trkpt lat="50.535475" lon="4.869555"><time>2026-05-07T19:30:25Z</time></trkpt>
<trkpt lat="50.534040" lon="4.870851"><time>2026-05-07T19:40:25Z</time></trkpt>
<trkpt lat="50.532831" lon="4.871939"><time>2026-05-07T19:50:25Z</time></trkpt>
<trkpt lat="50.532338" lon="4.871581"><time>2026-05-07T20:00:25Z</time></trkpt>
<trkpt lat="50.531492" lon="4.873702"><time>2026-05-07T20:10:25Z</time></trkpt>
<trkpt lat="50.530647" lon="4.877811"><time>2026-05-07T20:20:25Z</time></trkpt>
<trkpt lat="50.529501" lon="4.882863"><time>2026-05-07T20:30:25Z</time></trkpt>
<trkpt lat="50.529098" lon="4.884692"><time>2026-05-07T20:40:25Z</time></trkpt>
<trkpt lat="50.526676" lon="4.895511"><time>2026-05-07T20:50:25Z</time></trkpt>
</trkseg>
</trk>
<trk>
<name>nlbwr7</name>
<cmt>r</cmt>
<desc>Warisoulx Chemin n°7 Rue de la Brasserie</desc>
<link href="https://chemins.be/warisoulx/chemin/7"/><trkseg>
<trkpt lat="50.535865" lon="4.864678"><time>2026-05-07T19:10:25Z</time></trkpt>
<trkpt lat="50.534494" lon="4.865651"><time>2026-05-07T19:20:25Z</time></trkpt>
<trkpt lat="50.531575" lon="4.867144"><time>2026-05-07T19:30:25Z</time></trkpt>
<trkpt lat="50.531663" lon="4.869543"><time>2026-05-07T19:40:25Z</time></trkpt>
<trkpt lat="50.532284" lon="4.871538"><time>2026-05-07T19:50:25Z</time></trkpt>
</trkseg>
</trk>
<trk>
<name>nlbwr8</name>
<cmt>r</cmt>
<desc>Warisoulx Chemin n°8 Rue de Warisoulx</desc>
<link href="https://chemins.be/warisoulx/chemin/8"/><trkseg>
<trkpt lat="50.526189" lon="4.865112"><time>2026-05-07T19:10:25Z</time></trkpt>
<trkpt lat="50.526774" lon="4.867206"><time>2026-05-07T19:20:25Z</time></trkpt>
</trkseg></trk>
<trk>
<name>nlbwr8</name>
<cmt>s</cmt>
<desc>Warisoulx Chemin n°8 Rue de Warisoulx</desc>
<link href="https://chemins.be/warisoulx/chemin/8"/><trkseg>
<trkpt lat="50.526774" lon="4.867206"><time>2026-05-07T19:20:25Z</time></trkpt>
<trkpt lat="50.526735" lon="4.867770"><time>2026-05-07T19:30:25Z</time></trkpt>
<trkpt lat="50.526305" lon="4.869500"><time>2026-05-07T19:40:25Z</time></trkpt>
<trkpt lat="50.525945" lon="4.869665"><time>2026-05-07T19:50:25Z</time></trkpt>
</trkseg>
</trk>
<trk>
<name>nlbwr9</name>
<cmt>r</cmt>
<desc>Warisoulx Chemin n°9 Rue de Cognelée</desc>
<link href="https://chemins.be/warisoulx/chemin/9"/><trkseg>
<trkpt lat="50.526666" lon="4.895652"><time>2026-05-07T19:10:25Z</time></trkpt>
<trkpt lat="50.524611" lon="4.896912"><time>2026-05-07T19:20:25Z</time></trkpt>
</trkseg></trk>
<trk>
<name>nlbwr9</name>
<cmt>v</cmt>
<desc>Warisoulx Chemin n°9 Rue de Cognelée</desc>
<link href="https://chemins.be/warisoulx/chemin/9"/><trkseg>
<trkpt lat="50.524611" lon="4.896912"><time>2026-05-07T19:20:25Z</time></trkpt>
<trkpt lat="50.522501" lon="4.898214"><time>2026-05-07T19:30:25Z</time></trkpt>
</trkseg>
</trk>
<trk>
<name>nlbwri1</name>
<cmt>v</cmt>
<desc>Warisoulx Sentier n°i1 </desc>
<link href="https://chemins.be/warisoulx/sentier/i1"/><trkseg>
<trkpt lat="50.532593" lon="4.864460"><time>2026-05-07T19:10:25Z</time></trkpt>
<trkpt lat="50.532103" lon="4.863341"><time>2026-05-07T19:20:25Z</time></trkpt>
<trkpt lat="50.531881" lon="4.862690"><time>2026-05-07T19:30:25Z</time></trkpt>
<trkpt lat="50.531553" lon="4.861699"><time>2026-05-07T19:40:25Z</time></trkpt>
</trkseg>
</trk>
<trk>
<name>nlbwri10</name>
<cmt>v</cmt>
<desc>Warisoulx Chemin n°i10 Rue des Boscailles</desc>
<link href="https://chemins.be/warisoulx/chemin/i10"/><trkseg>
<trkpt lat="50.540218" lon="4.872469"><time>2026-05-07T19:10:25Z</time></trkpt>
<trkpt lat="50.539373" lon="4.870428"><time>2026-05-07T19:20:25Z</time></trkpt>
<trkpt lat="50.541952" lon="4.866632"><time>2026-05-07T19:30:25Z</time></trkpt>
<trkpt lat="50.543916" lon="4.863493"><time>2026-05-07T19:40:25Z</time></trkpt>
<trkpt lat="50.544639" lon="4.862640"><time>2026-05-07T19:50:25Z</time></trkpt>
<trkpt lat="50.544694" lon="4.862415"><time>2026-05-07T20:00:25Z</time></trkpt>
</trkseg>
</trk>
<trk>
<name>nlbwri11</name>
<cmt>v</cmt>
<desc>Warisoulx Chemin n°i11 </desc>
<link href="https://chemins.be/warisoulx/chemin/i11"/><trkseg>
<trkpt lat="50.540146" lon="4.872943"><time>2026-05-07T19:10:25Z</time></trkpt>
<trkpt lat="50.538937" lon="4.870868"><time>2026-05-07T19:20:25Z</time></trkpt>
<trkpt lat="50.534761" lon="4.875418"><time>2026-05-07T19:30:25Z</time></trkpt>
<trkpt lat="50.530904" lon="4.878171"><time>2026-05-07T19:40:25Z</time></trkpt>
<trkpt lat="50.530322" lon="4.879838"><time>2026-05-07T19:50:25Z</time></trkpt>
</trkseg>
</trk>
<trk>
<name>nlbwri2</name>
<cmt>r</cmt>
<desc>Warisoulx Sentier n°i2 </desc>
<link href="https://chemins.be/warisoulx/sentier/i2"/><trkseg>
<trkpt lat="50.534286" lon="4.861601"><time>2026-05-07T19:10:25Z</time></trkpt>
<trkpt lat="50.534312" lon="4.861897"><time>2026-05-07T19:20:25Z</time></trkpt>
<trkpt lat="50.534347" lon="4.862179"><time>2026-05-07T19:30:25Z</time></trkpt>
</trkseg></trk>
<trk>
<name>nlbwri2</name>
<cmt>v</cmt>
<desc>Warisoulx Sentier n°i2 </desc>
<link href="https://chemins.be/warisoulx/sentier/i2"/><trkseg>
<trkpt lat="50.534347" lon="4.862179"><time>2026-05-07T19:30:25Z</time></trkpt>
<trkpt lat="50.534292" lon="4.862320"><time>2026-05-07T19:40:25Z</time></trkpt>
<trkpt lat="50.534229" lon="4.862418"><time>2026-05-07T19:50:25Z</time></trkpt>
<trkpt lat="50.534184" lon="4.862403"><time>2026-05-07T20:00:25Z</time></trkpt>
<trkpt lat="50.534013" lon="4.862585"><time>2026-05-07T20:10:25Z</time></trkpt>
<trkpt lat="50.533751" lon="4.862893"><time>2026-05-07T20:20:25Z</time></trkpt>
</trkseg>
</trk>
<trk>
<name>nlbwri3</name>
<cmt>s</cmt>
<desc>Warisoulx Chemin n°i3 </desc>
<link href="https://chemins.be/warisoulx/chemin/i3"/><trkseg>
<trkpt lat="50.536001" lon="4.864426"><time>2026-05-07T19:10:25Z</time></trkpt>
<trkpt lat="50.536694" lon="4.864052"><time>2026-05-07T19:20:25Z</time></trkpt>
</trkseg>
</trk>
<trk>
<name>nlbwri4</name>
<cmt>r</cmt>
<desc>Warisoulx Chemin n°i4 Rue Del'Grète</desc>
<link href="https://chemins.be/warisoulx/chemin/i4"/><trkseg>
<trkpt lat="50.523261" lon="4.883048"><time>2026-05-07T19:10:25Z</time></trkpt>
<trkpt lat="50.522436" lon="4.884746"><time>2026-05-07T19:20:25Z</time></trkpt>
<trkpt lat="50.522237" lon="4.886234"><time>2026-05-07T19:30:25Z</time></trkpt>
<trkpt lat="50.522484" lon="4.887934"><time>2026-05-07T19:40:25Z</time></trkpt>
<trkpt lat="50.523038" lon="4.888772"><time>2026-05-07T19:50:25Z</time></trkpt>
<trkpt lat="50.523416" lon="4.888776"><time>2026-05-07T20:00:25Z</time></trkpt>
<trkpt lat="50.523495" lon="4.889087"><time>2026-05-07T20:10:25Z</time></trkpt>
<trkpt lat="50.523201" lon="4.890621"><time>2026-05-07T20:20:25Z</time></trkpt>
<trkpt lat="50.523727" lon="4.891558"><time>2026-05-07T20:30:25Z</time></trkpt>
<trkpt lat="50.524792" lon="4.896562"><time>2026-05-07T20:40:25Z</time></trkpt>
</trkseg>
</trk>
<trk>
<name>nlbwri5</name>
<cmt>r</cmt>
<desc>Warisoulx Chemin n°i5 Rue de Warisoulx</desc>
<link href="https://chemins.be/warisoulx/chemin/i5"/><trkseg>
<trkpt lat="50.529930" lon="4.845673"><time>2026-05-07T19:10:25Z</time></trkpt>
<trkpt lat="50.531065" lon="4.851665"><time>2026-05-07T19:20:25Z</time></trkpt>
</trkseg>
</trk>
<trk>
<name>nlbwri6</name>
<cmt>v</cmt>
<desc>Warisoulx Sentier n°i6 </desc>
<link href="https://chemins.be/warisoulx/sentier/i6"/><trkseg>
<trkpt lat="50.529792" lon="4.844092"><time>2026-05-07T19:10:25Z</time></trkpt>
<trkpt lat="50.529027" lon="4.844268"><time>2026-05-07T19:20:25Z</time></trkpt>
</trkseg>
</trk>
<trk>
<name>nlbwri7</name>
<cmt>v</cmt>
<desc>Warisoulx Chemin n°i7 Rue du Hazoir</desc>
<link href="https://chemins.be/warisoulx/chemin/i7"/><trkseg>
<trkpt lat="50.531375" lon="4.873856"><time>2026-05-07T19:10:25Z</time></trkpt>
<trkpt lat="50.531181" lon="4.875024"><time>2026-05-07T19:20:25Z</time></trkpt>
<trkpt lat="50.530991" lon="4.875276"><time>2026-05-07T19:30:25Z</time></trkpt>
<trkpt lat="50.530695" lon="4.877191"><time>2026-05-07T19:40:25Z</time></trkpt>
<trkpt lat="50.528308" lon="4.878167"><time>2026-05-07T19:50:25Z</time></trkpt>
<trkpt lat="50.525580" lon="4.879153"><time>2026-05-07T20:00:25Z</time></trkpt>
</trkseg></trk>
<trk>
<name>nlbwri7</name>
<cmt>d</cmt>
<desc>Warisoulx Chemin n°i7 Rue du Hazoir</desc>
<link href="https://chemins.be/warisoulx/chemin/i7"/><trkseg>
<trkpt lat="50.525580" lon="4.879153"><time>2026-05-07T20:00:25Z</time></trkpt>
<trkpt lat="50.524294" lon="4.879322"><time>2026-05-07T20:10:25Z</time></trkpt>
</trkseg>
</trk>
<trk>
<name>nlbwri8</name>
<cmt>v</cmt>
<desc>Warisoulx Sentier n°i8 </desc>
<link href="https://chemins.be/warisoulx/sentier/i8"/><trkseg>
<trkpt lat="50.533908" lon="4.859565"><time>2026-05-07T19:10:25Z</time></trkpt>
<trkpt lat="50.534180" lon="4.859215"><time>2026-05-07T19:20:25Z</time></trkpt>
<trkpt lat="50.534449" lon="4.858893"><time>2026-05-07T19:30:25Z</time></trkpt>
</trkseg>
</trk>
<trk>
<name>nlbwri9</name>
<cmt>q</cmt>
<desc>Warisoulx Sentier n°i9 </desc>
<link href="https://chemins.be/warisoulx/sentier/i9"/><trkseg>
<trkpt lat="50.534024" lon="4.866168"><time>2026-05-07T19:10:25Z</time></trkpt>
<trkpt lat="50.532574" lon="4.871061"><time>2026-05-07T19:20:25Z</time></trkpt>
</trkseg>
</trk>
<trk>
<name>nlbwrL142</name>
<cmt>v</cmt>
<desc>Warisoulx Chemin n°L142 Tronçon de la ligne L142 à Warisoulx</desc>
<link href="https://chemins.be/warisoulx/chemin/L142"/><trkseg>
<trkpt lat="50.521730" lon="4.891761"><time>2026-05-07T19:10:25Z</time></trkpt>
<trkpt lat="50.523192" lon="4.894626"><time>2026-05-07T19:20:25Z</time></trkpt>
<trkpt lat="50.524620" lon="4.896800"><time>2026-05-07T19:30:25Z</time></trkpt>
</trkseg>
</trk>
<trk>
<name>nlbwrp1</name>
<cmt>r</cmt>
<desc>Warisoulx Chemin particulier n°p1 Rue Sous Le Bois</desc>
<link href="https://chemins.be/warisoulx/chemin/p1"/><trkseg>
<trkpt lat="50.523852" lon="4.854384"><time>2026-05-07T19:10:25Z</time></trkpt>
<trkpt lat="50.525025" lon="4.857682"><time>2026-05-07T19:20:25Z</time></trkpt>
</trkseg></trk>
<trk>
<name>nlbwrp1</name>
<cmt>s</cmt>
<desc>Warisoulx Chemin particulier n°p1 Rue Sous Le Bois</desc>
<link href="https://chemins.be/warisoulx/chemin/p1"/><trkseg>
<trkpt lat="50.525025" lon="4.857682"><time>2026-05-07T19:20:25Z</time></trkpt>
<trkpt lat="50.525808" lon="4.859665"><time>2026-05-07T19:30:25Z</time></trkpt>
<trkpt lat="50.523957" lon="4.861563"><time>2026-05-07T19:40:25Z</time></trkpt>
</trkseg>
</trk>
<trk>
<name>nlbwrp2</name>
<cmt>v</cmt>
<desc>Warisoulx Chemin particulier n°p2 </desc>
<link href="https://chemins.be/warisoulx/chemin/p2"/><trkseg>
<trkpt lat="50.529062" lon="4.884651"><time>2026-05-07T19:10:25Z</time></trkpt>
<trkpt lat="50.527841" lon="4.884382"><time>2026-05-07T19:20:25Z</time></trkpt>
<trkpt lat="50.524085" lon="4.883819"><time>2026-05-07T19:30:25Z</time></trkpt>
<trkpt lat="50.523386" lon="4.883205"><time>2026-05-07T19:40:25Z</time></trkpt>
</trkseg></trk>
<trk>
<name>nlbwrp2</name>
<cmt>s</cmt>
<desc>Warisoulx Chemin particulier n°p2 </desc>
<link href="https://chemins.be/warisoulx/chemin/p2"/><trkseg>
<trkpt lat="50.523386" lon="4.883205"><time>2026-05-07T19:40:25Z</time></trkpt>
<trkpt lat="50.521505" lon="4.881633"><time>2026-05-07T19:50:25Z</time></trkpt>
</trkseg>
</trk>
<trk>
<name>nlbwrr23</name>
<cmt>v</cmt>
<desc>Warisoulx Chemin de remembrement n°r23 </desc>
<link href="https://chemins.be/warisoulx/chemin/r23"/><trkseg>
<trkpt lat="50.532705" lon="4.871937"><time>2026-05-07T19:10:25Z</time></trkpt>
<trkpt lat="50.532713" lon="4.872050"><time>2026-05-07T19:20:25Z</time></trkpt>
<trkpt lat="50.532946" lon="4.872293"><time>2026-05-07T19:30:25Z</time></trkpt>
<trkpt lat="50.533340" lon="4.872720"><time>2026-05-07T19:40:25Z</time></trkpt>
<trkpt lat="50.534091" lon="4.873574"><time>2026-05-07T19:50:25Z</time></trkpt>
</trkseg>
</trk>
<trk>
<name>nlbwrr24</name>
<cmt>r</cmt>
<desc>Warisoulx Chemin de remembrement n°r24 </desc>
<link href="https://chemins.be/warisoulx/chemin/r24"/><trkseg>
<trkpt lat="50.526791" lon="4.867389"><time>2026-05-07T19:10:25Z</time></trkpt>
<trkpt lat="50.528196" lon="4.872905"><time>2026-05-07T19:20:25Z</time></trkpt>
<trkpt lat="50.531411" lon="4.873757"><time>2026-05-07T19:30:25Z</time></trkpt>
</trkseg>
</trk>
<trk>
<name>nlbwrr26</name>
<cmt>v</cmt>
<desc>Warisoulx Chemin de remembrement n°r26 </desc>
<link href="https://chemins.be/warisoulx/chemin/r26"/><trkseg>
<trkpt lat="50.532132" lon="4.871240"><time>2026-05-07T19:10:25Z</time></trkpt>
<trkpt lat="50.531063" lon="4.871257"><time>2026-05-07T19:20:25Z</time></trkpt>
</trkseg>
</trk>
<trk>
<name>nlbwrr27</name>
<cmt>r</cmt>
<desc>Warisoulx Chemin de remembrement n°r27 </desc>
<link href="https://chemins.be/warisoulx/chemin/r27"/><trkseg>
<trkpt lat="50.531590" lon="4.874055"><time>2026-05-07T19:10:25Z</time></trkpt>
<trkpt lat="50.532289" lon="4.874585"><time>2026-05-07T19:20:25Z</time></trkpt>
</trkseg></trk>
<trk>
<name>nlbwrr27</name>
<cmt>d</cmt>
<desc>Warisoulx Chemin de remembrement n°r27 </desc>
<link href="https://chemins.be/warisoulx/chemin/r27"/><trkseg>
<trkpt lat="50.532289" lon="4.874585"><time>2026-05-07T19:20:25Z</time></trkpt>
<trkpt lat="50.533490" lon="4.875345"><time>2026-05-07T19:30:25Z</time></trkpt>
</trkseg>
</trk>
<trk>
<name>nlbwrr30</name>
<cmt>r</cmt>
<desc>Warisoulx Chemin de remembrement n°r30 Rue de Warisoulx</desc>
<link href="https://chemins.be/warisoulx/chemin/r30"/><trkseg>
<trkpt lat="50.523957" lon="4.861535"><time>2026-05-07T19:10:25Z</time></trkpt>
<trkpt lat="50.525433" lon="4.865260"><time>2026-05-07T19:20:25Z</time></trkpt>
</trkseg>
</trk>
<trk>
<name>nlbwrr8</name>
<cmt>r</cmt>
<desc>Warisoulx Chemin de remembrement n°r8 Rue de Namur</desc>
<link href="https://chemins.be/warisoulx/chemin/r8"/><trkseg>
<trkpt lat="50.538944" lon="4.841984"><time>2026-05-07T19:10:25Z</time></trkpt>
<trkpt lat="50.540156" lon="4.844479"><time>2026-05-07T19:20:25Z</time></trkpt>
<trkpt lat="50.541459" lon="4.846862"><time>2026-05-07T19:30:25Z</time></trkpt>
</trkseg>
</trk>
</gpx>